Location: Litvinovka
(48.6667°N, 34.3500°E)
Time: 07:12:42
(UTC+00:00)

Meteor 1-24 Rocket - Pass Details

Date: 18 September 2020
Orbit: 790 x 927 km, 81.2° (Epoch: 19 October)

Event Time Altitude Azimuth Distance (km) Brightness Sun altitude
Rises 17:23:08 0° 354° (N) 3,341 7.2 -16.1°
Reaches altitude 10° 17:25:45 10° 5° (N) 2,422 6.3 -16.5°
Maximum altitude 17:30:40 33° 68° (ENE) 1,390 4.5 -17.2°
Enters shadow 17:32:11 28° 98° (E) 1,529 4.5 -17.4°
